Flag for United Arab Emirates Weather past 2 weeks in Abu Dhabi, Abu Dhabi, United Arab Emirates

Now
73 °F

Clear.


Feels Like: 74 °F
Forecast: 70 / 82 °F
Wind: 7 mph from Northwest

Location: Abu Dhabi Bateen Airport

Current Time: Mar 27, 2015 at 6:30:12 AM

Latest Report: Mar 27, 2015 at 6:00 AM


Visibility: 10 mi

Pressure: 29.98 "Hg

Humidity: 78%

Dew point: 66 °F

Location of Abu DhabiLocation

Historic Weather in Abu Dhabi — Graph

°F

Abu Dhabi temperature yesterday

Maximum temperature yesterday: 88 °F (at 3:00 PM)
Minimum temperature yesterday: 70 °F (at 5:00 AM)
Average temperature yesterday: 77 °F

Past Weeks' High & Low Weather Summary

 TemperatureHumidityPressure
High97 °F (Mar 19, 4:00 PM)88% (Mar 14, 6:00 AM)30.07 "Hg (Mar 14, 6:00 AM)
Low63 °F (Mar 14, 6:00 AM)12% (Mar 15, 5:00 PM)29.83 "Hg (Mar 18, 4:00 PM)
Average78 °F54%29.95 "Hg
* Reported Mar 12 5:00 AM — Mar 27 5:00 AM, Abu Dhabi, Weather by CustomWeather, © 2015

Note: Actual official high and low records may vary slightly from our data, if they occured in-between our weather recording intervals... More about our weather records

Advertising

Abu Dhabi weather history for previous 24 hours

 ConditionsComfort  
Time TempWeatherWind HumidityBarometerVisibility
5:00 AM
Fri, Mar 27
73 °FClear.8 mph74%29.95 "Hg10 mi
4:00 AM73 °FClear.8 mph69%29.95 "Hg10 mi
3:00 AM73 °FClear.5 mph69%29.95 "Hg10 mi
2:00 AM73 °FClear.3 mph69%29.95 "Hg10 mi
1:00 AM73 °FClear.No wind69%29.95 "Hg10 mi
12:00 AM75 °FPassing clouds.3 mph65%29.95 "HgN/A
11:00 PM
Thu, Mar 26
75 °FClear.3 mph65%29.98 "Hg10 mi
10:00 PM75 °FPassing clouds.5 mph65%29.98 "HgN/A
9:00 PM75 °FClear.6 mph61%29.98 "Hg10 mi
8:00 PM77 °FClear.10 mph61%29.98 "Hg10 mi
7:00 PM77 °FClear.13 mph61%29.98 "Hg10 mi
6:00 PM79 °FSunny.14 mph61%29.95 "Hg10 mi
5:00 PM81 °FSunny.13 mph54%29.95 "Hg10 mi
4:00 PM82 °FSunny.13 mph48%29.92 "Hg10 mi
3:00 PM88 °FPassing clouds.8 mph29%29.92 "HgN/A
2:00 PM86 °FPassing clouds.8 mph35%29.95 "HgN/A
1:00 PM86 °FPassing clouds.9 mph29%29.95 "HgN/A
12:00 PM84 °FPassing clouds.8 mph40%29.98 "HgN/A
11:00 AM81 °FSunny.9 mph51%30.01 "Hg10 mi
10:00 AM79 °FPassing clouds.8 mph58%30.01 "HgN/A
9:00 AM77 °FSunny.1 mph65%29.98 "Hg10 mi
8:00 AM73 °FSunny.2 mph83%29.98 "Hg10 mi
7:00 AM70 °FClear.No wind83%29.95 "Hg6 mi
6:00 AM70 °FClear.2 mph83%29.95 "Hg5 mi
Weather by CustomWeather, © 2015

See weather overviewHow to use our weather pages